| time (UTC) | temp F | wind direction | speed MPH | gust MPH | rain 1hr in | rain 24hr in | rain mn in | humidity % | barometer mb |
| 20260901013805 | 68 | 18 | 2.0 | 3.0 | 0.00 | 0.00 | 0.00 | 75 | 1022.0 |
| 20260901013306 | 68 | 14 | 2.0 | 3.0 | 0.00 | 0.00 | 0.00 | 76 | 1022.0 |
| 20260901012804 | 68 | 3 | 2.0 | 3.0 | 0.00 | 0.00 | 0.00 | 77 | 1022.0 |
| 20260901012306 | 68 | 22 | 2.0 | 3.0 | 0.00 | 0.00 | 0.00 | 78 | 1022.0 |
| 20260901011304 | 68 | 11 | 1.0 | 2.0 | 0.00 | 0.00 | 0.00 | 78 | 1022.0 |
| 20260901010805 | 68 | 11 | 1.0 | 2.0 | 0.00 | 0.00 | 0.00 | 77 | 1022.0 |
| 20260901010304 | 69 | 4 | 1.0 | 2.0 | 0.00 | 0.00 | 0.00 | 78 | 1022.0 |
| 20260901005307 | 69 | 15 | 1.0 | 3.0 | 0.00 | 0.00 | 0.00 | 79 | 1022.0 |
| 20260901003805 | 69 | 15 | 1.0 | 3.0 | 0.00 | 0.00 | 0.00 | 80 | 1022.0 |
| 20260901003306 | 69 | 15 | 2.0 | 3.0 | 0.00 | 0.00 | 0.00 | 80 | 1022.0 |
| 20260901002804 | 69 | 9 | 2.0 | 3.0 | 0.00 | 0.00 | 0.00 | 79 | 1022.0 |
| 20260831235306 | 70 | 16 | 0.0 | 2.0 | 0.00 | 0.00 | 0.00 | 82 | 1022.0 |
| 20260831234805 | 69 | 17 | 1.0 | 1.0 | 0.00 | 0.00 | 0.00 | 81 | 1022.0 |
| 20260831234304 | 69 | 17 | 1.0 | 2.0 | 0.00 | 0.00 | 0.00 | 80 | 1022.0 |
| 20260831233805 | 69 | 17 | 1.0 | 2.0 | 0.00 | 0.00 | 0.00 | 80 | 1022.0 |
| 20260831233305 | 69 | 17 | 1.0 | 2.0 | 0.00 | 0.00 | 0.00 | 79 | 1022.0 |
| 20260831232805 | 69 | 12 | 1.0 | 2.0 | 0.00 | 0.00 | 0.00 | 79 | 1022.0 |
| 20260831232306 | 69 | 1 | 1.0 | 3.0 | 0.00 | 0.00 | 0.00 | 79 | 1022.0 |
| 20260831231805 | 69 | 22 | 2.0 | 3.0 | 0.00 | 0.00 | 0.00 | 79 | 1022.0 |
| 20260831231305 | 69 | 20 | 2.0 | 3.0 | 0.00 | 0.00 | 0.00 | 80 | 1022.0 |
| 20260831230805 | 69 | 20 | 2.0 | 3.0 | 0.00 | 0.00 | 0.00 | 80 | 1022.0 |
| 20260831225306 | 69 | 28 | 2.0 | 3.0 | 0.00 | 0.00 | 0.00 | 79 | 1022.0 |
| 20260831224805 | 70 | 19 | 1.0 | 2.0 | 0.00 | 0.00 | 0.00 | 79 | 1022.0 |
| 20260831223304 | 70 | 22 | 2.0 | 3.0 | 0.00 | 0.00 | 0.00 | 80 | 1023.0 |
| 20260831222306 | 70 | 32 | 1.0 | 2.0 | 0.00 | 0.00 | 0.00 | 81 | 1023.0 |
| 20260831221805 | 70 | 31 | 1.0 | 3.0 | 0.00 | 0.00 | 0.00 | 81 | 1023.0 |
| 20260831221304 | 70 | 42 | 1.0 | 3.0 | 0.00 | 0.00 | 0.00 | 81 | 1023.0 |
| 20260831220806 | 70 | 35 | 1.0 | 3.0 | 0.00 | 0.00 | 0.00 | 81 | 1022.0 |
| 20260831215804 | 70 | 34 | 0.0 | 3.0 | 0.00 | 0.00 | 0.00 | 81 | 1022.0 |
| 20260831215306 | 70 | 27 | 0.0 | 2.0 | 0.00 | 0.00 | 0.00 | 81 | 1022.0 |
| 20260831214804 | 70 | 32 | 0.0 | 1.0 | 0.00 | 0.00 | 0.00 | 82 | 1022.0 |
| 20260831213304 | 71 | 5 | 0.0 | 2.0 | 0.00 | 0.00 | 0.00 | 82 | 1022.0 |
| 20260831212805 | 71 | 5 | 0.0 | 1.0 | 0.00 | 0.00 | 0.00 | 83 | 1022.0 |
| 20260831212306 | 71 | 11 | 0.0 | 0.0 | 0.00 | 0.00 | 0.00 | 82 | 1022.0 |
| 20260831210804 | 71 | 11 | 0.0 | 2.0 | 0.00 | 0.00 | 0.00 | 82 | 1021.0 |
| 20260831210304 | 71 | 28 | 0.0 | 2.0 | 0.00 | 0.00 | 0.00 | 81 | 1021.0 |
| 20260831205804 | 71 | 10 | 0.0 | 1.0 | 0.00 | 0.00 | 0.00 | 81 | 1021.0 |
| 20260831205306 | 71 | 10 | 0.0 | 0.0 | 0.00 | 0.00 | 0.00 | 81 | 1021.0 |
| 20260831204304 | 71 | 10 | 0.0 | 2.0 | 0.00 | 0.00 | 0.00 | 81 | 1021.0 |
| 20260831203805 | 72 | 12 | 1.0 | 2.0 | 0.00 | 0.00 | 0.00 | 80 | 1021.0 |
| 20260831203304 | 72 | 341 | 0.0 | 0.0 | 0.00 | 0.00 | 0.00 | 80 | 1021.0 |
| 20260831202804 | 72 | 76 | 0.0 | 0.0 | 0.00 | 0.00 | 0.00 | 80 | 1021.0 |
| 20260831195804 | 73 | 76 | 0.0 | 1.0 | 0.00 | 0.00 | 0.00 | 78 | 1021.0 |
| 20260831195306 | 73 | 76 | 0.0 | 2.0 | 0.00 | 0.00 | 0.00 | 77 | 1021.0 |
| 20260831193804 | 74 | 163 | 2.0 | 3.0 | 0.00 | 0.00 | 0.00 | 77 | 1021.0 |
| 20260831193304 | 74 | 148 | 2.0 | 3.0 | 0.00 | 0.00 | 0.00 | 76 | 1021.0 |
| 20260831191304 | 74 | 156 | 3.0 | 5.0 | 0.00 | 0.00 | 0.00 | 75 | 1021.0 |
| 20260831190804 | 75 | 132 | 2.0 | 3.0 | 0.00 | 0.00 | 0.00 | 75 | 1021.0 |
| 20260831190304 | 75 | 120 | 1.0 | 5.0 | 0.00 | 0.00 | 0.00 | 74 | 1021.0 |
| 20260831184805 | 76 | 133 | 2.0 | 6.0 | 0.00 | 0.00 | 0.00 | 74 | 1021.0 |
| 20260831183304 | 76 | 216 | 3.0 | 5.0 | 0.00 | 0.00 | 0.00 | 73 | 1021.0 |
| 20260831182805 | 76 | 160 | 3.0 | 3.0 | 0.00 | 0.00 | 0.00 | 74 | 1021.0 |
| 20260831182305 | 76 | 199 | 2.0 | 6.0 | 0.00 | 0.00 | 0.00 | 72 | 1021.0 |
| 20260831181804 | 76 | 203 | 3.0 | 5.0 | 0.00 | 0.00 | 0.00 | 72 | 1021.0 |
| 20260831175804 | 77 | 168 | 2.0 | 6.0 | 0.00 | 0.00 | 0.00 | 71 | 1021.0 |
| 20260831175306 | 76 | 195 | 3.0 | 5.0 | 0.00 | 0.00 | 0.00 | 71 | 1021.0 |
| 20260831173304 | 77 | 196 | 2.0 | 5.0 | 0.00 | 0.00 | 0.00 | 68 | 1021.0 |
| 20260831172804 | 77 | 216 | 3.0 | 6.0 | 0.00 | 0.00 | 0.00 | 69 | 1021.0 |
| 20260831172306 | 77 | 152 | 4.0 | 6.0 | 0.00 | 0.00 | 0.00 | 69 | 1021.0 |
| 20260831170804 | 77 | 213 | 3.0 | 7.0 | 0.00 | 0.00 | 0.00 | 70 | 1021.0 |
| 20260831170305 | 77 | 164 | 3.0 | 6.0 | 0.00 | 0.00 | 0.00 | 70 | 1021.0 |
| 20260831164305 | 77 | 234 | 3.0 | 7.0 | 0.00 | 0.00 | 0.00 | 69 | 1021.0 |
| 20260831162805 | 78 | 234 | 5.0 | 6.0 | 0.00 | 0.00 | 0.00 | 69 | 1021.0 |
| 20260831162306 | 78 | 203 | 3.0 | 7.0 | 0.00 | 0.00 | 0.00 | 67 | 1021.0 |
| 20260831161805 | 78 | 251 | 4.0 | 7.0 | 0.00 | 0.00 | 0.00 | 68 | 1021.0 |
| 20260831155306 | 78 | 209 | 3.0 | 9.0 | 0.00 | 0.00 | 0.00 | 68 | 1021.0 |
| 20260831152804 | 79 | 153 | 5.0 | 7.0 | 0.00 | 0.00 | 0.00 | 69 | 1021.0 |
| 20260831152306 | 79 | 168 | 5.0 | 9.0 | 0.00 | 0.00 | 0.00 | 70 | 1021.0 |
| 20260831151806 | 78 | 223 | 4.0 | 9.0 | 0.00 | 0.00 | 0.00 | 71 | 1021.0 |
| 20260831145306 | 78 | 246 | 4.0 | 8.0 | 0.00 | 0.00 | 0.00 | 73 | 1021.0 |
| 20260831144806 | 77 | 217 | 3.0 | 6.0 | 0.00 | 0.00 | 0.00 | 71 | 1021.0 |
| 20260831144305 | 78 | 216 | 3.0 | 9.0 | 0.00 | 0.00 | 0.00 | 70 | 1021.0 |
| 20260831143805 | 77 | 198 | 5.0 | 7.0 | 0.00 | 0.00 | 0.00 | 71 | 1022.0 |
| 20260831143306 | 78 | 253 | 4.0 | 7.0 | 0.00 | 0.00 | 0.00 | 71 | 1022.0 |
| 20260831135306 | 77 | 235 | 4.0 | 9.0 | 0.00 | 0.00 | 0.00 | 72 | 1022.0 |
| 20260831133805 | 77 | 233 | 5.0 | 10.0 | 0.00 | 0.00 | 0.00 | 73 | 1022.0 |
| 20260831133306 | 77 | 258 | 3.0 | 7.0 | 0.00 | 0.00 | 0.00 | 74 | 1022.0 |
| 20260831132805 | 77 | 248 | 5.0 | 8.0 | 0.00 | 0.00 | 0.00 | 71 | 1022.0 |
| 20260831132307 | 76 | 236 | 4.0 | 8.0 | 0.00 | 0.00 | 0.00 | 75 | 1022.0 |
| 20260831130805 | 77 | 228 | 5.0 | 9.0 | 0.00 | 0.00 | 0.00 | 74 | 1022.0 |
| 20260831130305 | 78 | 230 | 3.0 | 9.0 | 0.00 | 0.00 | 0.00 | 72 | 1022.0 |
| 20260831125306 | 77 | 191 | 3.0 | 7.0 | 0.00 | 0.00 | 0.00 | 74 | 1022.0 |
| 20260831124805 | 76 | 220 | 5.0 | 8.0 | 0.00 | 0.00 | 0.00 | 73 | 1022.0 |
| 20260831124306 | 78 | 245 | 5.0 | 9.0 | 0.00 | 0.00 | 0.00 | 70 | 1022.0 |
| 20260831122806 | 78 | 205 | 3.0 | 6.0 | 0.00 | 0.00 | 0.00 | 67 | 1022.0 |
| 20260831122306 | 77 | 231 | 4.0 | 7.0 | 0.00 | 0.00 | 0.00 | 70 | 1022.0 |
| 20260831121806 | 78 | 200 | 5.0 | 6.0 | 0.00 | 0.00 | 0.00 | 67 | 1022.0 |
| 20260831121305 | 79 | 164 | 4.0 | 6.0 | 0.00 | 0.00 | 0.00 | 66 | 1022.0 |
| 20260831120806 | 78 | 171 | 3.0 | 6.0 | 0.00 | 0.00 | 0.00 | 70 | 1022.0 |
| 20260831112806 | 74 | 226 | 3.0 | 6.0 | 0.00 | 0.00 | 0.00 | 75 | 1022.0 |
| 20260831110305 | 75 | 199 | 2.0 | 5.0 | 0.00 | 0.00 | 0.00 | 73 | 1022.0 |
| 20260831105805 | 75 | 260 | 2.0 | 3.0 | 0.00 | 0.00 | 0.00 | 74 | 1022.0 |
| 20260831105306 | 76 | 207 | 2.0 | 5.0 | 0.00 | 0.00 | 0.00 | 72 | 1022.0 |
| 20260831104805 | 75 | 202 | 3.0 | 7.0 | 0.00 | 0.00 | 0.00 | 73 | 1022.0 |
| 20260831104306 | 75 | 233 | 2.0 | 5.0 | 0.00 | 0.00 | 0.00 | 77 | 1022.0 |
| 20260831103805 | 74 | 230 | 3.0 | 5.0 | 0.00 | 0.00 | 0.00 | 76 | 1022.0 |
| 20260831103305 | 74 | 255 | 3.0 | 5.0 | 0.00 | 0.00 | 0.00 | 76 | 1022.0 |
| 20260831094805 | 73 | 247 | 2.0 | 3.0 | 0.00 | 0.00 | 0.00 | 78 | 1022.0 |
| 20260831094305 | 73 | 247 | 0.0 | 2.0 | 0.00 | 0.00 | 0.00 | 79 | 1022.0 |
| 20260831093805 | 72 | 248 | 3.0 | 3.0 | 0.00 | 0.00 | 0.00 | 80 | 1022.0 |
| 20260831091305 | 73 | 218 | 1.0 | 3.0 | 0.00 | 0.00 | 0.00 | 78 | 1022.0 |
| 20260831090805 | 73 | 263 | 1.0 | 3.0 | 0.00 | 0.00 | 0.00 | 79 | 1022.0 |
| 20260831090305 | 72 | 262 | 0.0 | 2.0 | 0.00 | 0.00 | 0.00 | 80 | 1022.0 |
| 20260831085805 | 73 | 272 | 2.0 | 3.0 | 0.00 | 0.00 | 0.00 | 79 | 1022.0 |
| 20260831085306 | 73 | 252 | 3.0 | 5.0 | 0.00 | 0.00 | 0.00 | 78 | 1022.0 |
| 20260831084306 | 72 | 271 | 2.0 | 5.0 | 0.00 | 0.00 | 0.00 | 79 | 1022.0 |
| 20260831083805 | 73 | 273 | 0.0 | 1.0 | 0.00 | 0.00 | 0.00 | 80 | 1022.0 |
| 20260831083305 | 72 | 275 | 1.0 | 3.0 | 0.00 | 0.00 | 0.00 | 82 | 1022.0 |
| 20260831082806 | 72 | 276 | 0.0 | 3.0 | 0.00 | 0.00 | 0.00 | 81 | 1022.0 |
| 20260831080805 | 71 | 263 | 0.0 | 2.0 | 0.00 | 0.00 | 0.00 | 83 | 1021.0 |
| 20260831080305 | 71 | 269 | 0.0 | 1.0 | 0.00 | 0.00 | 0.00 | 84 | 1021.0 |
| 20260831075805 | 70 | 297 | 0.0 | 0.0 | 0.00 | 0.00 | 0.00 | 88 | 1021.0 |
| 20260831074805 | 69 | 300 | 0.0 | 1.0 | 0.00 | 0.00 | 0.00 | 89 | 1021.0 |
| 20260831074305 | 68 | 317 | 0.0 | 1.0 | 0.00 | 0.00 | 0.00 | 89 | 1021.0 |
| 20260831073805 | 68 | 317 | 0.0 | 1.0 | 0.00 | 0.00 | 0.00 | 89 | 1021.0 |
| 20260831072306 | 67 | 323 | 0.0 | 0.0 | 0.00 | 0.00 | 0.00 | 88 | 1021.0 |
| 20260831071805 | 67 | 323 | 0.0 | 1.0 | 0.00 | 0.00 | 0.00 | 88 | 1021.0 |
| 20260831065306 | 67 | 255 | 1.0 | 3.0 | 0.00 | 0.00 | 0.00 | 88 | 1021.0 |
| 20260831064805 | 67 | 351 | 1.0 | 2.0 | 0.00 | 0.00 | 0.00 | 88 | 1021.0 |
| 20260831064306 | 67 | 343 | 1.0 | 2.0 | 0.00 | 0.00 | 0.00 | 88 | 1021.0 |
| 20260831063305 | 67 | 335 | 0.0 | 1.0 | 0.00 | 0.00 | 0.00 | 88 | 1020.0 |
| 20260831062805 | 67 | 342 | 0.0 | 2.0 | 0.00 | 0.00 | 0.00 | 88 | 1020.0 |
| 20260831055805 | 67 | 346 | 1.0 | 3.0 | 0.00 | 0.00 | 0.00 | 87 | 1020.0 |
| 20260831055306 | 67 | 21 | 1.0 | 2.0 | 0.00 | 0.00 | 0.00 | 87 | 1020.0 |
| 20260831054805 | 67 | 11 | 0.0 | 2.0 | 0.00 | 0.00 | 0.00 | 88 | 1020.0 |
| 20260831053305 | 67 | 336 | 0.0 | 1.0 | 0.00 | 0.00 | 0.00 | 87 | 1020.0 |
| 20260831051805 | 67 | 350 | 1.0 | 2.0 | 0.00 | 0.00 | 0.00 | 87 | 1020.0 |
| 20260831050806 | 67 | 10 | 0.0 | 2.0 | 0.00 | 0.00 | 0.00 | 87 | 1021.0 |
| 20260831050304 | 67 | 4 | 0.0 | 2.0 | 0.00 | 0.00 | 0.00 | 87 | 1021.0 |
| 20260831045805 | 67 | 0 | 0.0 | 1.0 | 0.00 | 0.00 | 0.00 | 87 | 1021.0 |
| 20260831040805 | 67 | 333 | 0.0 | 2.0 | 0.00 | 0.00 | 0.00 | 86 | 1021.0 |
| 20260831040305 | 67 | 11 | 0.0 | 2.0 | 0.00 | 0.00 | 0.00 | 87 | 1021.0 |
| 20260831034305 | 67 | 323 | 0.0 | 2.0 | 0.00 | 0.00 | 0.00 | 86 | 1021.0 |
| 20260831033805 | 67 | 323 | 0.0 | 1.0 | 0.00 | 0.00 | 0.00 | 86 | 1021.0 |
| 20260831033305 | 67 | 343 | 0.0 | 1.0 | 0.00 | 0.00 | 0.00 | 86 | 1021.0 |
| 20260831032804 | 67 | 357 | 1.0 | 2.0 | 0.00 | 0.00 | 0.00 | 86 | 1021.0 |
| 20260831030805 | 67 | 4 | 0.0 | 1.0 | 0.00 | 0.00 | 0.00 | 85 | 1021.0 |
| 20260831030305 | 67 | 8 | 0.0 | 2.0 | 0.00 | 0.00 | 0.00 | 85 | 1021.0 |
| 20260831024804 | 67 | 326 | 0.0 | 1.0 | 0.00 | 0.00 | 0.00 | 85 | 1021.0 |
| 20260831024305 | 67 | 8 | 0.0 | 2.0 | 0.00 | 0.00 | 0.00 | 85 | 1021.0 |
| 20260831023804 | 67 | 17 | 0.0 | 1.0 | 0.00 | 0.00 | 0.00 | 85 | 1022.0 |
| 20260831023305 | 67 | 17 | 0.0 | 2.0 | 0.00 | 0.00 | 0.00 | 85 | 1022.0 |
| 20260831022805 | 67 | 8 | 0.0 | 1.0 | 0.00 | 0.00 | 0.00 | 85 | 1022.0 |
| 20260831022306 | 67 | 2 | 0.0 | 1.0 | 0.00 | 0.00 | 0.00 | 85 | 1022.0 |
| 20260831021805 | 67 | 8 | 0.0 | 1.0 | 0.00 | 0.00 | 0.00 | 85 | 1022.0 |
| 20260831021305 | 67 | 13 | 0.0 | 1.0 | 0.00 | 0.00 | 0.00 | 85 | 1022.0 |
| 20260831020805 | 67 | 26 | 1.0 | 2.0 | 0.00 | 0.00 | 0.00 | 85 | 1022.0 |
| 20260831020305 | 67 | 15 | 1.0 | 3.0 | 0.00 | 0.00 | 0.00 | 85 | 1022.0 |
| 20260831015805 | 67 | 2 | 0.0 | 2.0 | 0.00 | 0.00 | 0.00 | 84 | 1022.0 |
| 20260831015306 | 68 | 7 | 0.0 | 2.0 | 0.00 | 0.00 | 0.00 | 85 | 1022.0 |
| 20260831014804 | 68 | 0 | 0.0 | 1.0 | 0.00 | 0.00 | 0.00 | 85 | 1022.0 |